Back to catalog

ONEWEB-0379

AliveCommunicationsPO
NORAD 49305·PAYLOAD·🇬🇧 United Kingdom

Launched Oct 14, 2021 from Vostochny Cosmodrome

Loading…

Next Passes (next 24 hours)

TLE

FreshSource: CelesTrak SupGP

Epoch: Sep 14, 2026, 17:05 UTC

1 49305C 21090AC  26257.71199492 -.00002203  00000+0 -59487-2 0  2577
2 49305  87.8902 271.8551 0002101  92.3123 304.5150 13.14504867    18

Track ONEWEB-0379 in real time with AllMySat

Download on the App Store